[[[{"header":{"parameterUnit":"kt","parameterCategory":2,"dx":1,"dy":1,"la1":30.253999710083008,"la2":30.299108505249023,"lo1":-89.0895004272461,"lo2":-89.04439544677734,"nx":28,"ny":28,"refTime":"2022-10-09T21:00:00:Z","depth":0,"parameterNumber":1,"parameterNumberName":"U-component_of_WINDS"},"data":[-8.2324,-8.253,-8.2461,-8.2665,-8.2638,-8.2765,-8.2789,-8.2813,-8.2814,-8.2959,-8.303,-8.2982,-8.2957,-8.3026,-8.3101,-8.3077,-8.3116,-8.3238,-8.3191,-8.2701,-8.2629,-8.2561,-8.2507,-8.3247,-8.3247,-8.3708,-8.3713,-8.3716,-8.1971,-8.1946,-8.2033,-8.2072,-8.2146,-8.1986,-8.2003,-8.2077,-8.2196,-8.2199,-8.2264,-8.2387,-8.2475,-8.2406,-8.2479,-8.2575,-8.2505,-8.26,-8.2593,-8.2592,-8.2066,-8.201,-8.2655,-8.2655,-8.2655,-8.2655,-8.2655,-8.2655,-8.131,-8.1437,-8.1419,-8.1512,-8.1512,-8.1539,-8.1647,-8.1584,-8.1669,-8.1736,-8.1637,-8.1771,-8.1761,-8.1814,-8.1816,-8.1918,-8.18,-8.1883,-8.1905,-8.1929,-8.1966,-8.1314,-8.1927,-8.1924,-8.1922,-8.1921,-8.1919,0,-8.0806,-8.0739,-8.0817,-8.0877,-8.0941,-8.098,-8.1004,-8.1069,-8.0903,-8.0981,-8.1087,-8.1137,-8.1235,-8.1329,-8.1381,-8.1363,-8.1208,-8.1183,-8.1241,-8.1294,-8.1334,-8.1318,-8.0465,-8.1167,-8.116,-8.1155,-8.1152,-8.1149,-8.0137,-8.0292,-8.0238,-8.0303,-8.0298,-8.0405,-8.0455,-8.0296,-8.0357,-8.0363,-8.0483,-8.0572,-8.0636,-8.0819,-8.0745,-8.0819,-8.0745,-8.1021,-8.0755,-8.0798,-8.0753,-8.0747,-8.0762,-8.1077,-8.1087,-8.1094,-8.11,0,-7.9767,-7.9651,-7.9868,-7.9799,-7.9787,-7.9958,-7.9899,-8.0019,-7.9943,-8.0098,-8.0125,-8.0009,-8.0116,-7.9995,-8.0094,-8.0029,-8.0312,-8.0235,-8.0314,-8.0293,-8.053,-8.0511,-8.1314,-8.1412,-8.0641,-8.0648,-8.0654,0,-7.9152,-7.9362,-7.9176,-7.9309,-7.9536,-7.937,-7.96,-7.9557,-7.9544,-7.9664,-7.9464,-7.9582,-7.9408,-7.9508,-7.9411,-7.962,-7.9638,-7.9601,-7.9574,-7.9621,-7.9627,-7.9654,-7.9621,-7.9501,-7.9497,-7.9493,-7.949,0,-7.8589,-7.8734,-7.8947,-7.8961,-7.8909,-7.9014,-7.8997,-7.898,-7.9031,-7.9076,-7.9107,-7.9173,-7.9211,-7.9265,-7.914,-7.8965,-7.9391,-7.9124,-7.9354,-7.9358,-7.9458,-7.9455,-8.0192,-7.9485,-7.9484,-7.9483,-7.9481,0,-7.8075,-7.8122,-7.8449,-7.84,-7.8445,-7.8586,-7.8638,-7.8729,-7.8726,-7.8673,-7.8708,-7.8561,-7.8731,-7.8475,-7.8708,-7.8515,-7.8564,-7.8542,-7.8556,-7.8568,-7.8286,-7.8723,-7.9434,-7.9506,-7.8574,-7.8566,-7.856,0,-7.7463,-7.776,-7.7619,-7.7933,-7.8053,-7.7819,-7.7972,-7.7974,-7.7916,-7.8009,-7.7943,-7.8053,-7.7836,-7.7854,-7.7984,-7.7923,-7.8173,-7.7885,-7.8028,-7.8035,-7.8039,-7.869,-7.8829,-7.9291,-7.8461,-7.8471,-7.8479,0,-7.6974,-7.6906,-7.6973,-7.6982,-7.6957,-7.7057,-7.7233,-7.7303,-7.7374,-7.7398,-7.7543,-7.7692,-7.7534,-7.7566,-7.7453,-7.7597,-7.7999,-7.7409,-7.7407,-7.7523,-7.84,-7.853,-7.8609,-7.7892,-7.7903,-7.7913,-7.8401,0,-7.6229,-7.6362,-7.6533,-7.6562,-7.6618,-7.6807,-7.6675,-7.6752,-7.6636,-7.657,-7.6779,-7.675,-7.6825,-7.6879,-7.6769,-7.7133,-7.7054,-7.6886,-7.6631,-7.7059,-7.7216,-7.7281,-7.6406,-7.6398,-7.6391,-7.6385,0,0,-7.5675,-7.5861,-7.57,-7.5864,-7.5902,-7.5656,-7.587,-7.5878,-7.5904,-7.5937,-7.5792,-7.6001,-7.5985,-7.6254,-7.6377,-7.6406,-7.646,-7.6316,-7.6855,-7.6908,-7.6957,-7.7128,-7.7197,-7.6373,-7.637,-7.6368,-7.6366,0,-7.5375,-7.536,-7.5572,-7.5572,-7.5568,-7.5485,-7.5537,-7.549,-7.5457,-7.566,-7.5457,-7.5566,-7.5738,-7.5748,-7.5776,-7.6279,-7.6121,-7.6311,-7.6626,-7.6789,-7.6852,-7.6906,-7.7088,-7.7155,-7.6348,-7.635,-7.635,0,-7.4872,-7.4836,-7.4924,-7.4997,-7.4992,-7.5122,-7.482,-7.497,-7.5065,-7.4791,-7.4997,-7.4964,-7.4966,-7.5236,-7.5353,-7.5225,-7.5821,-7.5609,-7.5649,-7.5661,-7.5812,-7.5888,-7.5954,-7.5075,-7.5071,-7.5068,0,0,-7.4633,-7.4753,-7.4665,-7.4923,-7.4933,-7.4814,-7.4869,-7.476,-7.4764,-7.4768,-7.4722,-7.4735,-7.4832,-7.4901,-7.4985,-7.53,-7.5289,-7.5457,-7.5517,-7.5567,-7.5606,-7.5771,-7.5845,-7.5053,-7.5053,-7.5052,0,0,-7.4518,-7.4425,-7.4306,-7.4588,-7.4599,-7.453,-7.4694,-7.4548,-7.461,-7.4574,-7.4397,-7.4393,-7.4643,-7.4619,-7.4437,-7.4893,-7.4643,-7.4683,-7.49,-7.4974,-7.5033,-7.5035,-7.4127,0,0,0,0,0,-7.4144,-7.4435,-7.4329,-7.4356,-7.4449,-7.4589,-7.46,-7.446,-7.4285,-7.4417,-7.4355,-7.4181,-7.4484,-7.4319,-7.435,-7.4556,-7.4863,-7.4897,-7.4929,-7.5281,-7.536,-7.5426,0,0,0,0,0,0,-7.4153,-7.4188,-7.432,-7.4267,-7.4286,-7.4577,-7.425,-7.422,-7.4267,-7.4231,-7.4198,-7.418,-7.4064,-7.4293,-7.4323,-7.4522,-7.4116,-7.4876,-7.4905,-7.4931,-7.5308,-7.5372,-7.5427,0,0,0,0,0,-7.416,-7.4187,-7.4373,-7.4261,-7.4278,-7.4161,-7.4238,-7.421,-7.4244,-7.4149,-7.4125,-7.4134,-7.4074,-7.4089,-7.431,-7.4512,-7.4094,-7.4106,-7.4895,-7.4917,-7.4938,-7.5339,0,0,0,0,0,0,-7.4165,-7.4163,-7.4373,-7.4373,-7.414,-7.4141,-7.4137,-7.4203,-7.4156,-7.4136,-7.4075,-7.4047,-7.4084,-7.4094,-7.4108,-7.4517,-7.4077,-7.4089,-7.4096,-7.4912,-7.493,-7.4945,0,0,0,0,0,0,-7.4148,-7.4166,-7.4373,-7.4228,-7.421,-7.4125,-7.4121,-7.4288,-7.4159,-7.4084,-7.4059,-7.4063,-7.4065,-7.41,-7.4109,-7.4375,-7.4063,-7.4074,-7.4082,-7.4087,-7.4926,-7.494,0,0,0,0,0,0,-7.4152,-7.4167,-7.4227,-7.4214,-7.4197,-7.4185,-7.4269,-7.4373,-7.4034,-7.409,-7.4,-7.3984,-7.4076,-7.4081,-7.4111,-7.4375,-7.4375,-7.4063,-7.4071,-7.4077,-7.408,0,0,0,0,0,0,0,-7.4156,-7.4089,-7.4373,-7.4201,-7.4186,-7.4372,-7.4372,-7.4372,-7.4031,-7.4017,-7.4003,-7.3991,-7.3998,-7.401,-7.4023,-7.4375,0,0,-7.4062,-7.4068,0,0,0,0,0,0,0,0,-7.408,-7.4087,-7.4373,-7.4373,-7.4373,-7.4372,-7.4372,-7.4372,-7.4028,-7.4017,-7.4006,-7.3996,-7.4001,-7.4011,-7.4021,0,0,0,0,0,0,0,0,0,0,0,0,0,0,0,-7.4373,-7.4373,0,-7.4372,-7.4372,-7.4372,-7.4027,-7.4017,-7.4008,-7.4,-7.4004,-7.4012,-7.4021,0,0,0,0,0,0,0,0,0,0,0,0,0,0,0,0,0,0,0,0,0,0,0,0,0,0,0,0,0,0,0,0,0,0,0,0,0,0,0,0,0,0,0,0,0,0,0,0,0,0,0,0,0,0,0,0,0,0,0,0,0,0,0,0,0,0,0,0,0]}],[{"header":{"parameterUnit":"kt","parameterCategory":2,"dx":1,"dy":1,"la1":30.253999710083008,"la2":30.299108505249023,"lo1":-89.0895004272461,"lo2":-89.04439544677734,"nx":28,"ny":28,"refTime":"2022-10-09T21:00:00:Z","depth":0,"parameterNumber":2,"parameterNumberName":"V-component_of_WINDS"},"data":[-7.5058,-7.5196,-7.5203,-7.5363,-7.5395,-7.5505,-7.5545,-7.5598,-7.5641,-7.577,-7.5845,-7.5864,-7.5908,-7.5996,-7.6076,-7.6082,-7.6114,-7.6158,-7.6157,-7.5959,-7.5932,-7.5906,-7.5873,-7.6166,-7.6166,-7.636,-7.6362,-7.6363,-7.4907,-7.4941,-7.5029,-7.5118,-7.5192,-7.5153,-7.522,-7.5283,-7.5382,-7.5437,-7.5511,-7.5625,-7.5715,-7.5745,-7.5831,-7.5893,-7.5878,-7.5915,-7.5909,-7.5916,-7.5705,-7.5671,-7.5925,-7.5925,-7.5925,-7.5925,-7.5925,-7.5925,-7.4634,-7.4718,-7.4776,-7.4871,-7.4917,-7.4976,-7.5056,-7.5078,-7.5163,-7.5256,-7.5247,-7.5358,-7.5412,-7.552,-7.5557,-7.5642,-7.5601,-7.5643,-7.5653,-7.5663,-7.5672,-7.5386,-7.5657,-7.5656,-7.5656,-7.5655,-7.5655,0,-7.4435,-7.4435,-7.4521,-7.4608,-7.4677,-7.4745,-7.4808,-7.4857,-7.4858,-7.4928,-7.5028,-7.5087,-7.5202,-7.5296,-7.5378,-7.5409,-7.5373,-7.5372,-7.54,-7.5404,-7.5397,-7.5399,-7.5052,-7.5363,-7.5361,-7.5359,-7.5358,-7.5357,-7.4158,-7.4256,-7.4321,-7.4379,-7.4416,-7.4511,-7.4568,-7.4562,-7.4623,-7.4698,-7.4771,-7.4866,-7.4942,-7.5101,-7.5124,-7.521,-7.5193,-7.531,-7.5206,-7.5206,-7.5191,-7.5185,-7.5193,-7.533,-7.5334,-7.5336,-7.5339,0,-7.4,-7.4011,-7.4165,-7.422,-7.4236,-7.4339,-7.4384,-7.4467,-7.448,-7.4595,-7.4621,-7.4641,-7.474,-7.4744,-7.4858,-7.4857,-7.5019,-7.5003,-7.4999,-7.4995,-7.5099,-7.5088,-7.544,-7.5484,-7.5184,-7.5187,-7.5189,0,-7.3766,-7.3896,-7.3904,-7.3994,-7.4136,-7.4127,-7.4267,-7.4292,-7.4341,-7.4432,-7.4395,-7.448,-7.4473,-7.4559,-7.4558,-7.4692,-7.4715,-7.4721,-7.4718,-7.4723,-7.4722,-7.4753,-7.4738,-7.4714,-7.4712,-7.471,-7.4709,0,-7.3516,-7.3674,-7.3819,-7.3857,-7.3928,-7.3996,-7.4029,-7.4084,-7.414,-7.4215,-7.425,-7.4338,-7.4385,-7.4451,-7.4449,-7.4377,-7.4615,-7.4516,-7.462,-7.462,-7.4671,-7.4668,-7.498,-7.4706,-7.4706,-7.4705,-7.4705,0,-7.3329,-7.3407,-7.3617,-7.3674,-7.3716,-7.3812,-7.3897,-7.3981,-7.4042,-7.4048,-7.4106,-7.4081,-7.4202,-7.4102,-7.4267,-7.4173,-7.4221,-7.4239,-7.4246,-7.4256,-7.4144,-7.4316,-7.4615,-7.4645,-7.4265,-7.4262,-7.4258,0,-7.3037,-7.3254,-7.3248,-7.3448,-7.3548,-7.3498,-7.3604,-7.3661,-7.3678,-7.3763,-7.3781,-7.3879,-7.3807,-7.3838,-7.3919,-7.394,-7.4062,-7.3925,-7.4043,-7.4047,-7.4026,-7.4302,-7.4344,-7.455,-7.4212,-7.4217,-7.422,0,-7.2813,-7.2902,-7.2938,-7.298,-7.3055,-7.314,-7.3262,-7.3358,-7.3415,-7.3484,-7.3584,-7.3723,-7.3673,-7.3726,-7.3715,-7.3799,-7.3979,-7.3734,-7.3735,-7.3775,-7.419,-7.4229,-7.4264,-7.3953,-7.3959,-7.3963,-7.4183,0,-7.2522,-7.2633,-7.2733,-7.2829,-7.2896,-7.3022,-7.303,-7.3098,-7.3081,-7.3097,-7.3246,-7.3295,-7.3392,-7.3434,-7.3419,-7.3611,-7.3579,-7.3525,-7.3428,-7.361,-7.3682,-7.3712,-7.3319,-7.3316,-7.3314,-7.3312,0,0,-7.2239,-7.2398,-7.239,-7.251,-7.2565,-7.2513,-7.2647,-7.2695,-7.2793,-7.2831,-7.2777,-7.2981,-7.3023,-7.3203,-7.3261,-7.3302,-7.3335,-7.3272,-7.3524,-7.3548,-7.3569,-7.3647,-7.3678,-7.3308,-7.3307,-7.3306,-7.3305,0,-7.2134,-7.2182,-7.2317,-7.2366,-7.2439,-7.245,-7.2482,-7.2545,-7.2561,-7.2709,-7.2663,-7.2753,-7.2918,-7.2968,-7.3014,-7.3251,-7.321,-7.3281,-7.3405,-7.35,-7.3527,-7.355,-7.3632,-7.3662,-7.3299,-7.33,-7.33,0,-7.1912,-7.196,-7.2027,-7.2153,-7.22,-7.2306,-7.2205,-7.2322,-7.24,-7.2336,-7.2484,-7.2512,-7.258,-7.2751,-7.2828,-7.2781,-7.3095,-7.2999,-7.3014,-7.3022,-7.3115,-7.3147,-7.3176,-7.2797,-7.2795,-7.2794,0,0,-7.182,-7.1925,-7.1974,-7.2131,-7.2164,-7.2183,-7.224,-7.223,-7.2293,-7.2319,-7.2355,-7.2417,-7.2511,-7.2574,-7.2664,-7.2852,-7.2864,-7.2937,-7.2961,-7.298,-7.2999,-7.3096,-7.3128,-7.2787,-7.2787,-7.2787,0,0,-7.1776,-7.1839,-7.1812,-7.1996,-7.2059,-7.2116,-7.2211,-7.2178,-7.2261,-7.2247,-7.2234,-7.225,-7.241,-7.244,-7.2349,-7.2629,-7.2533,-7.2555,-7.2604,-7.2634,-7.2657,-7.2646,-7.2253,0,0,0,0,0,-7.1673,-7.1831,-7.1806,-7.1838,-7.1998,-7.2131,-7.2151,-7.2145,-7.2075,-7.215,-7.2175,-7.2128,-7.2388,-7.2307,-7.2338,-7.244,-7.27,-7.2716,-7.273,-7.2838,-7.2869,-7.2895,0,0,0,0,0,0,-7.1686,-7.1725,-7.1802,-7.1866,-7.1902,-7.2125,-7.2007,-7.2009,-7.2067,-7.2056,-7.2125,-7.213,-7.2126,-7.2291,-7.2319,-7.2415,-7.2243,-7.2706,-7.2719,-7.2731,-7.2848,-7.2874,-7.2896,0,0,0,0,0,-7.1696,-7.1728,-7.1986,-7.1864,-7.1895,-7.1924,-7.2001,-7.2002,-7.2047,-7.2085,-7.2089,-7.2037,-7.213,-7.2153,-7.2307,-7.2402,-7.2223,-7.2234,-7.2715,-7.2725,-7.2734,-7.2861,0,0,0,0,0,0,-7.1703,-7.1729,-7.1992,-7.2002,-7.1804,-7.1912,-7.1928,-7.1996,-7.2071,-7.2077,-7.1995,-7.1986,-7.2134,-7.2151,-7.2169,-7.2398,-7.2207,-7.2218,-7.2225,-7.2723,-7.2731,-7.2738,0,0,0,0,0,0,-7.1712,-7.1737,-7.1997,-7.1922,-7.1923,-7.19,-7.1915,-7.2046,-7.2073,-7.1977,-7.1971,-7.199,-7.2106,-7.215,-7.2164,-7.2369,-7.2195,-7.2205,-7.2213,-7.2217,-7.2729,-7.2735,0,0,0,0,0,0,-7.1722,-7.1744,-7.192,-7.192,-7.192,-7.2022,-7.2015,-7.2179,-7.201,-7.1974,-7.1995,-7.1988,-7.2107,-7.212,-7.2161,-7.236,-7.2366,-7.2195,-7.2202,-7.2207,-7.2211,0,0,0,0,0,0,0,-7.1731,-7.1587,-7.1939,-7.1919,-7.1918,-7.2086,-7.2089,-7.2091,-7.2009,-7.2003,-7.1996,-7.1991,-7.2136,-7.2148,-7.2159,-7.2353,0,0,-7.2194,-7.2199,0,0,0,0,0,0,0,0,-7.1578,-7.1585,-7.1939,-7.1941,-7.1943,-7.2087,-7.2089,-7.2091,-7.2008,-7.2003,-7.1998,-7.1993,-7.2139,-7.2148,-7.2158,0,0,0,0,0,0,0,0,0,0,0,0,0,0,0,-7.1939,-7.1941,0,-7.2087,-7.2088,-7.209,-7.2007,-7.2003,-7.1999,-7.1995,-7.2142,-7.2149,-7.2157,0,0,0,0,0,0,0,0,0,0,0,0,0,0,0,0,0,0,0,0,0,0,0,0,0,0,0,0,0,0,0,0,0,0,0,0,0,0,0,0,0,0,0,0,0,0,0,0,0,0,0,0,0,0,0,0,0,0,0,0,0,0,0,0,0,0,0,0,0]}]]]